DELTA 1 DEB, 10868

Orbit data source: Space-Track

DELTA 1 DEB, 10868 is space debris in SSO originally from a launch on Thu, 29 Jul 1976 UTC launched from the Air Force Western Test Range (AFWTR). Debris objects in space refer to the collection of defunct objects orbiting the Earth. Examples of debris include non-operational satellites, rocket bodies, and fragments generated from explosions, collisions, or faulty payload assembly.

Loading next visibility...
Identifier
10868, 1976-077CW
Orbit
SSO
Country
Flag of USUS
Related business
Manufacturer
Unknown
Mission
Spacecraft
Bus & Motor
Unknown
Mass
Unknown
Launch date (UTC)
1976-07-29 (49 years ago)
Launch vehicle
Unknown
Launch site
Air Force Western Test Range (AFWTR)
Object type
Payload
Rocket body
Debris
Shape & HBR
Unknown shape, 0.1 m
Radar Cross Section
Small (<0.1 m²)

Expand to show TLE details & history
Last TLE update: 2 days ago

TLE from 2 days ago
0 DELTA 1 DEB
1 10868U 76077CW  25345.51608968  .00000868  00000-0  67925-2 0  9995
2 10868 102.4217 183.4604 0095687  44.2768  13.7855 12.39412590219595
Epoch: 2025-12-11T12:23Z
TLE epoch observation values (Epoch: 2025-12-11T12:23:10.148Z)
Latitude
56.31032°
Longitude
-101.99681°
Altitude
1,444.994 km
Speed
7.178 km/s
True Right ascension
10h 57m 03s
True Declination
56° 09' 55"
Sunlit
Object was in daylight at epoch
Visualization orbit readout
Latitude
Unknown
Longitude
Unknown
Altitude
Unknown
Speed
Unknown
Apparent Right ascension
Unknown
Apparent Declination
Unknown
Sunlit
N/A
Visualization observer readout
Local Sidereal Time
22:55:23
Azimuth
Unknown
Elevation
Unknown
Doppler factor
Unknown
Orbital elements
Apogee altitude
1,582.142 km
Perigee altitude
1,431.247 km
Semi-major axis
7,884.832 km
Eccentricity
0.00957
Inclination
102.4217°
RAAN
183.4604°
Arg. of periapsis
44.2768°
True anomaly
14.04985°
Mean anomaly
13.7855°
Eccentric anomaly
13.91737°
Mean motion
3.09995 °/min
Orbital period
116.13 mins
BSTAR
0.0067925
Loading maneuver chart data...
Computing Atmospheric mass density...
Loading historical data...
Loading historical data...
Loading historical data...
Loading historical data...
Loading historical data...
Loading historical data...
Loading historical data...

Documentation

Showing up to 5 results
|